Location: Casteau
(50.5142°N, 4.0161°E)
Time: 14:01:28
(UTC+00:00)

Transit 2A - Visible Passes

Search period start: 04 August 2021 00:00
Search period end: 14 August 2021 00:00
Orbit: 598 x 960 km, 66.7° (Epoch: 04 August)

Date Brightness Start Highest point End Pass type
(mag) Time Alt. Az. Time Alt. Az. Time Alt. Az.
07 Aug 8.1 03:34:58 10° SSE 03:37:58 18° ESE 03:41:05 10° ENE visible
08 Aug 8.3 03:02:20 10° SE 03:04:03 12° ESE 03:05:50 10° E visible
10 Aug 6.8 03:33:53 10° S 03:38:02 40° ESE 03:42:30 10° NE visible
11 Aug 7.4 03:00:13 10° S 03:04:00 28° ESE 03:08:02 10° NE visible
12 Aug 7.8 02:26:51 10° SSE 02:30:03 19° ESE 02:33:23 10° ENE visible
13 Aug 8.1 01:54:00 10° SE 01:56:08 13° ESE 01:58:20 10° ENE visible
13 Aug 5.7 03:33:53 10° SW 03:38:22 87° SE 03:43:20 10° NE visible
